TimeEDT,TemperatureF,Dew PointF,Humidity,Sea Level PressureIn,VisibilityMPH,Wind Direction,Wind SpeedMPH,Gust SpeedMPH,PrecipitationIn,Events,Conditions,WindDirDegrees,DateUTC
12:54 AM,61.0,48.0,62,30.00,10.0,SSE,9.2,-,N/A,,Overcast,160,2013-03-12 04:54:00
1:54 AM,61.0,48.0,62,29.98,10.0,South,8.1,17.3,N/A,,Mostly Cloudy,170,2013-03-12 05:54:00
2:54 AM,62.1,48.9,62,29.95,10.0,South,10.4,-,N/A,,Partly Cloudy,170,2013-03-12 06:54:00
3:54 AM,62.1,48.9,62,29.92,10.0,South,11.5,-,0.00,,Partly Cloudy,170,2013-03-12 07:54:00
4:54 AM,63.0,51.1,65,29.90,10.0,South,16.1,23.0,N/A,,Mostly Cloudy,170,2013-03-12 08:54:00
5:54 AM,62.1,52.0,70,29.89,10.0,South,13.8,23.0,0.00,Rain,Light Rain,170,2013-03-12 09:54:00
6:54 AM,60.1,53.1,78,29.88,7.0,South,12.7,23.0,0.06,Rain,Light Rain,180,2013-03-12 10:54:00
7:54 AM,60.1,53.1,78,29.88,5.0,South,15.0,23.0,0.09,Rain,Light Rain,180,2013-03-12 11:54:00
8:48 AM,60.8,55.4,82,29.86,8.0,South,16.1,24.2,0.05,Rain,Light Rain,170,2013-03-12 12:48:00
8:54 AM,61.0,55.0,81,29.85,7.0,SSE,17.3,25.3,0.06,Rain,Light Rain,160,2013-03-12 12:54:00
9:54 AM,62.1,55.9,80,29.83,10.0,SSE,13.8,23.0,0.02,,Overcast,160,2013-03-12 13:54:00
10:41 AM,62.6,55.4,77,29.83,10.0,South,13.8,23.0,0.01,Rain,Light Rain,180,2013-03-12 14:41:00
10:54 AM,62.1,55.9,80,29.82,10.0,South,16.1,24.2,0.02,Rain,Light Rain,180,2013-03-12 14:54:00
11:54 AM,63.0,57.0,81,29.81,8.0,South,15.0,-,0.01,Rain,Light Rain,180,2013-03-12 15:54:00
12:08 PM,62.6,57.2,82,29.81,1.8,South,11.5,21.9,0.06,Rain,Heavy Rain,190,2013-03-12 16:08:00
12:17 PM,62.6,57.2,82,29.81,2.0,South,9.2,-,0.10,Rain,Light Rain,190,2013-03-12 16:17:00
12:25 PM,62.6,57.2,82,29.81,4.0,South,12.7,17.3,0.10,Rain,Light Rain,190,2013-03-12 16:25:00
12:39 PM,64.4,57.2,77,29.81,6.0,SSW,13.8,-,0.11,Rain,Light Rain,200,2013-03-12 16:39:00
12:47 PM,64.4,57.2,77,29.81,6.0,SSW,15.0,21.9,0.11,Rain,Light Rain,200,2013-03-12 16:47:00
12:54 PM,64.0,57.9,80,29.80,10.0,SSW,13.8,-,0.11,Rain,Light Rain,200,2013-03-12 16:54:00
1:37 PM,64.4,59.0,83,29.79,10.0,South,12.7,-,0.01,,Overcast,190,2013-03-12 17:37:00
1:54 PM,66.0,59.0,78,29.78,10.0,South,9.2,-,0.01,,Overcast,190,2013-03-12 17:54:00
2:28 PM,66.2,59.0,78,29.77,8.0,South,10.4,-,0.00,Rain,Light Rain,190,2013-03-12 18:28:00
2:49 PM,66.2,59.0,78,29.75,10.0,SSW,12.7,19.6,0.00,,Overcast,210,2013-03-12 18:49:00
2:54 PM,66.0,59.0,78,29.75,10.0,SSW,8.1,-,0.00,,Overcast,200,2013-03-12 18:54:00
3:51 PM,69.8,60.8,73,29.73,10.0,SW,8.1,-,N/A,,Overcast,220,2013-03-12 19:51:00
3:54 PM,69.1,60.1,73,29.74,10.0,West,11.5,-,N/A,,Mostly Cloudy,270,2013-03-12 19:54:00
4:54 PM,69.1,57.9,68,29.73,10.0,WSW,3.5,-,0.07,,Partly Cloudy,250,2013-03-12 20:54:00
5:54 PM,70.0,55.9,61,29.74,10.0,West,5.8,-,N/A,,Clear,270,2013-03-12 21:54:00
6:54 PM,68.0,54.0,61,29.76,10.0,NW,10.4,16.1,N/A,,Partly Cloudy,310,2013-03-12 22:54:00
7:15 PM,62.6,53.6,72,29.78,10.0,North,13.8,-,N/A,,Partly Cloudy,10,2013-03-12 23:15:00
7:54 PM,59.0,50.0,72,29.82,10.0,North,6.9,-,N/A,,Clear,10,2013-03-12 23:54:00
8:54 PM,57.0,48.0,72,29.84,10.0,NNE,4.6,-,N/A,,Clear,20,2013-03-13 00:54:00
9:54 PM,55.0,46.0,72,29.87,10.0,North,5.8,-,N/A,,Scattered Clouds,360,2013-03-13 01:54:00
10:54 PM,54.0,42.1,64,29.89,10.0,North,11.5,-,N/A,,Mostly Cloudy,360,2013-03-13 02:54:00
11:54 PM,52.0,37.9,59,29.91,10.0,North,10.4,-,N/A,,Mostly Cloudy,350,2013-03-13 03:54:00